Location: Palomar Mountain Lodge
(33.3110°N, 116.8495°W)
Time: 02:00:26
(UTC-07:00)

Daily predictions for brighter satellites

Satellite Brightness Start Highest point End
(mag) Time Altitude Azimuth Time Altitude Azimuth Time Altitude Azimuth
Cosmos 2322 Rocket 4.0 00:02:24 10° NNW 00:04:54 27° N 00:04:54 27° N
Cosmos 2360 Rocket 4.2 00:18:04 10° N 00:20:21 24° N 00:20:21 24° N
Cosmos 2333 Rocket 4.4 00:33:34 10° N 00:36:03 20° NNE 00:36:03 20° NNE
Cosmos 2219 Rocket 4.2 01:37:41 10° NNW 01:39:37 22° NNW 01:39:37 22° NNW
USA 215 4.1 01:56:35 10° NE 02:00:49 42° ENE 02:00:49 42° ENE
CZ-2D R/B 3.8 02:01:49 10° NNE 02:04:39 30° NE 02:04:39 30° NE
Cosmos 2297 Rocket 3.7 02:14:38 33° NNE 02:14:38 33° NNE 02:17:40 10° NNE
SL-16 R/B 3.3 02:14:07 47° NE 02:14:07 47° NE 02:19:04 10° N
ADEOS II 4.2 02:09:35 10° NE 02:12:06 20° ENE 02:12:06 20° ENE
SJ 16-02 3.9 02:30:09 19° NE 02:30:09 19° NE 02:31:33 10° NNE
Cosmos 2237 Rocket 3.6 02:25:34 10° NNW 02:28:39 33° N 02:28:39 33° N
USA 229 DEB 3.8 02:58:21 58° ESE 02:58:21 58° ESE 03:04:33 10° NE
USA 229 3.9 02:58:27 57° ESE 02:58:27 57° ESE 03:04:37 10° NE
Cosmos 2227 Rocket 3.5 03:02:41 31° NNW 03:02:41 31° NNW 03:06:24 10° N
Resurs 1-4 Rocket 3.6 03:01:51 10° N 03:04:46 27° NNW 03:04:46 27° NNW
ATLAS 3B CENTAUR R/B 3.5 03:07:04 57° SW 03:09:05 65° S 03:15:55 10° E
NOSS 3-1 (A) 3.9 03:09:54 44° E 03:09:54 44° E 03:14:56 10° NE
Cosmos 2082 4.5 03:22:52 40° NW 03:22:52 40° NW 03:27:20 10° N
Cosmos 1544 Rocket 4.4 03:25:44 50° NE 03:25:44 50° NE 03:29:12 10° NNE
Cosmos 1937 Rocket 3.5 03:27:52 77° NE 03:27:52 77° NE 03:32:51 10° NNE
Cosmos 1898 Rocket 3.8 03:33:09 55° NW 03:33:09 55° NW 03:37:38 10° N
Cosmos 1470 4.2 03:38:31 31° N 03:38:31 31° N 03:40:44 10° N
ARIANE 5 R/B 2.4 03:34:13 10° NNE 03:39:28 88° ESE 03:39:42 82° S
SL-16 R/B 2.1 03:34:23 10° NNW 03:40:05 89° WSW 03:41:07 62° SSE
Meteor 1-24 Rocket 3.9 03:35:07 10° NNW 03:39:35 53° NW 03:39:35 53° NW
Atlas Centaur 2 4.1 03:40:12 24° SSE 03:41:17 24° SSE 03:47:29 10° E
Okean 1-7 Rocket 4.1 03:38:37 10° N 03:42:02 53° NNW 03:42:02 53° NNW
Cosmos 2292 Rocket 4.4 03:36:05 10° N 03:43:31 75° W 03:44:38 60° SSW
Cosmos 1680 Rocket 3.3 03:38:31 10° NNW 03:43:45 86° WSW 03:43:58 82° S
IDEFIX/ARIANE 42P 2.9 03:39:33 10° NNE 03:44:42 61° E 03:45:55 47° SSE
USA 215 4.4 03:40:04 10° NNE 03:45:44 32° NW 03:48:09 25° WNW
OAO 3 Rocket 3.4 03:46:46 59° SE 03:46:46 59° SE 03:51:13 10° E
CZ-2D R/B 4.1 03:43:30 10° NNW 03:45:58 16° NW 03:45:58 16° NW
Cosmos 372 Rocket 4.4 03:48:08 45° SSE 03:49:21 57° ESE 03:54:28 10° NNE
ADEOS II 3.0 03:48:44 10° N 03:53:02 34° WNW 03:53:02 34° WNW
Cosmos 2263 Rocket 2.1 03:52:29 55° S 03:53:44 78° ESE 03:59:18 10° NNE
Meteor 2-10 4.0 03:54:32 54° S 03:55:50 86° E 04:01:25 10° N
SL-16 R/B 4.2 03:59:12 16° WNW 03:59:12 16° WNW 04:01:17 10° NW
ERS-1 4.5 03:52:59 10° N 03:57:50 58° WNW 03:58:01 57° W
SL-08 R/B 3.2 03:58:49 65° SSW 03:59:23 73° WSW 04:04:20 10° NNW
Timation 1 Rocket 4.4 03:58:37 50° WSW 03:59:39 56° WNW 04:05:30 10° NNE
CZ-2C R/B 4.2 04:01:55 10° NE 04:05:44 25° E 04:09:33 10° SSE
SJ 16-02 3.7 04:07:09 12° NW 04:07:09 12° NW 04:08:12 10° NW
NOSS 2-3 (E) 3.9 04:07:42 47° WNW 04:07:50 47° NW 04:12:15 10° NNE
Cosmos 1607 3.9 04:04:01 10° NW 04:10:24 66° WSW 04:16:46 10° SSE
USA 267 4.3 04:07:33 10° ESE 04:13:43 46° NE 04:19:53 10° NNW
NOSS 3-1 (C) 4.3 04:14:24 26° WNW 04:15:49 29° NW 04:21:00 10° N
Cosmos 2098 Rocket 4.3 04:15:26 10° NNW 04:20:21 39° W 04:21:33 35° WSW
Cosmos 2298 Rocket 4.0 04:19:47 32° SSW 04:22:20 87° ESE 04:27:41 10° NNE
PSLV R/B 4.4 04:18:30 10° NNE 04:22:44 47° E 04:26:02 15° S
Cosmos 1626 Rocket 3.4 04:19:26 10° NNW 04:23:41 65° W 04:25:05 40° SSW
Landsat 5 3.9 04:20:11 10° SSE 04:23:56 57° ENE 04:27:49 10° N
BREEZE-M DEB (TANK) 3.6 04:22:50 42° WSW 04:24:13 75° NW 04:36:01 10° NE
ERS-2 3.0 04:22:01 10° SSE 04:25:30 48° ENE 04:29:01 10° N
CZ-2C R/B 2.7 04:22:43 10° N 04:26:30 60° WNW 04:27:07 51° WSW
ATLAS CENTAUR R/B 2.3 04:27:27 23° S 04:29:46 44° ESE 04:33:39 10° NE
Cosmos 1726 3.2 04:31:13 28° WNW 04:31:13 28° WNW 04:33:59 10° NNW
Meteor 2-21 Rocket 4.3 04:26:35 10° N 04:32:39 84° W 04:38:43 10° S
Cosmos 1953 3.0 04:33:36 33° W 04:33:47 33° W 04:37:27 10° NNW
CZ-2D R/B 4.4 04:30:49 10° NNW 04:34:14 27° WNW 04:34:26 27° WNW
Meteor 2-16 Rocket 4.5 04:29:37 10° N 04:35:47 85° E 04:41:56 10° S
S3M 4.4 04:29:42 10° S 04:35:58 65° E 04:42:17 10° NNE
Cosmos 1908 3.1 04:34:23 32° SSW 04:36:04 77° W 04:39:59 10° N
Cosmos 2228 3.3 04:33:45 14° S 04:37:27 66° E 04:41:48 10° NNE
SL-4 R/B 2.3 04:35:47 10° NW 04:39:06 52° NE 04:42:27 10° ESE
Cosmos 1758 Rocket 3.9 04:37:36 10° N 04:41:53 66° E 04:46:10 10° SSE
SeaSat 1 2.7 04:39:07 10° NNE 04:43:54 53° WNW 04:46:37 25° SW
SL-23 DEB 3.8 04:39:16 10° NW 04:44:06 58° SW 04:47:22 10° SSE
CZ-4C R/B 2.7 04:43:15 30° SSW 04:44:36 58° W 04:47:47 10° NNW
PAYLOAD A 4.1 04:39:24 10° NNE 04:44:46 87° ESE 04:49:42 11° SSW
Nadezhda 2 Rocket 4.5 04:38:56 10° NNW 04:45:02 61° W 04:51:01 10° S
CZ-4B R/B 3.8 04:42:43 10° SE 04:45:28 24° ENE 04:48:10 10° NNE
Cosmos 1943 3.5 04:40:56 10° NNW 04:46:32 71° ENE 04:52:07 10° SSE
MSX 4.2 04:46:16 10° N 04:51:44 46° WNW 04:55:43 18° SW
H-2A R/B 2.0 04:48:06 10° S 04:52:08 52° W 04:56:08 10° NNW
Meteor 1-21 Rocket 4.4 04:49:07 10° NNW 04:54:22 46° W 04:59:37 10° SSW
Cosmos 1328 3.7 04:56:49 10° N 05:00:47 79° W 05:04:45 10° S
Cosmos 1825 Rocket 3.4 04:59:58 10° N 05:04:18 85° W 05:08:36 10° S
Meteor 1-11 4.4 05:00:05 10° N 05:05:51 77° E 05:11:30 10° SSE
SAR-Lupe-4 4.3 05:02:45 10° SSE 05:06:14 55° ENE 05:09:44 10° N
Cosmos 1703 3.5 05:06:43 10° NNW 05:10:31 46° W 05:14:17 10° SSW
Cosmos 1953 Rocket 3.9 05:06:09 10° N 05:10:38 72° E 05:15:03 10° SSE
OAO 2 Rocket 4.2 05:07:48 14° SW 05:11:57 42° SSE 05:16:48 10° E
Delta 2 Rocket 3.2 05:12:20 15° W 05:15:21 84° NNW 05:19:34 10° ENE
Cosmos 724 4.4 05:09:29 10° NW 05:15:23 57° WSW 05:21:23 10° S
Cosmos 1300 2.6 05:12:42 10° S 05:16:30 81° W 05:20:19 10° N
Cosmos 1844 4.3 05:11:29 10° S 05:17:10 62° ESE 05:22:52 10° NNE
SAR-Lupe-1 4.1 05:18:01 10° SSE 05:21:36 86° ENE 05:25:11 10° NNW
FENGYUN 3A 4.1 05:17:39 10° NNE 05:23:00 64° E 05:28:18 10° S
IDEFIX/ARIANE 42P 4.4 05:21:13 10° NW 05:23:42 14° WNW 05:26:12 10° W
Cosmos 1606 Rocket 4.4 05:21:10 10° SW 05:25:08 32° W 05:29:10 10° NNW
ERBS 4.2 05:26:09 11° SW 05:26:09 11° SW 05:26:49 10° SW
ADEOS 3.6 05:22:03 10° N 05:27:13 64° WNW 05:32:21 10° SSW
Meteor 1-31 Rocket 2.9 05:25:03 10° NNE 05:28:55 78° ESE 05:32:43 10° S
Cosmos 1689 Rocket 3.7 05:26:54 10° SE 05:29:38 38° ENE 05:32:22 10° N
OAO 3 Rocket 3.4 05:24:57 10° W 05:29:54 74° N 05:34:49 10° E
Atlas Centaur 2 3.5 05:22:48 10° WSW 05:30:13 54° SSE 05:38:28 10° E
ATLAS 3B CENTAUR R/B 2.8 05:22:53 10° W 05:30:51 37° SSW 05:34:44 10° SE
Cosmos 1484 Rocket 2.6 05:29:43 10° N 05:33:26 83° WNW 05:37:07 10° SSW
Cosmos 2263 Rocket 4.1 05:35:55 10° W 05:38:15 13° NW 05:40:34 10° NNW
